Regional Weather Roundup
Issued by NWS

Home | Current Version | Previous Version | Text Only | Print | Product List | Glossary Off
Versions: 1 2 3 4 5 6 7 8 9 10 11 12 13 14 15 16 17 18 19 20 21 22 23 24 25 26 27 28 29 30 31 32 33 34 35 36 37 38 39 40 41 42 43 44 45 46 47 48 49 50

000
ASUS43 KMPX 230601
RWRMN
WEATHER ROUNDUP FOR MINNESOTA
NATIONAL WEATHER SERVICE TWIN CITIES/CHANHASSEN MN
1200 AM CST FRI FEB 23 2018


NOTE: "FAIR" INDICATES FEW OR NO CLOUDS BELOW 12,000 FEET WITH NO
SIGNIFICANT WEATHER AND/OR OBSTRUCTIONS TO VISIBILITY. N/A MEANS
CURRENT SKY AND/OR WEATHER CONDITIONS ARE NOT AVAILABLE.

MNZ060>063-068>070-230700-
   Twin Cities Metro

CITY           SKY/WX    TMP DP  RH WIND       PRES   REMARKS
TWIN CITIES    LGT SNOW  26  26 100 E7        30.19F VSB 1   WCI  18
6HR MIN TEMP:  26; 6HR MAX TEMP:  29; 6HR PCP:  0.29;

ST PAUL        LGT SNOW  26  25  96 E5        30.20F VSB 3/4 WCI  20
CRYSTAL        LGT SNOW  25  23  92 E5        30.18F VSB 1   WCI  19
BLAINE         MIX PCPN  27  27 100 E5        30.18F VSB 3/4 WCI  21
LAKEVILLE      SNOW      25  25 100 E5        30.17F VSB 1/2 WCI  19
EDEN PRAIRIE   LGT SNOW  26  24  92 NE8       30.16F VSB 3/4 WCI  18
6HR MIN TEMP:  26; 6HR MAX TEMP:  29; 6HR PCP:  0.16;

SOUTH ST PAUL  LGT SNOW  27  26  99 CALM      30.19F
LAKE ELMO      LGT SNOW  27  27 100 E5        30.20F VSB 1   WCI  21
$$
MNZ001>005-007-008-013>017-022>024-027-028-230700-
   Northwest Minnesota

CITY           SKY/WX    TMP DP  RH WIND       PRES   REMARKS
BEMIDJI        LGT SNOW  19  17  92 E5        30.20F WCI  12
HALLOCK        FAIR      10   9  92 S5        30.23F WCI   2
ROSEAU         FAIR      10   5  79 CALM      30.23F
WARROAD        FAIR      12   5  73 S3        30.23F
THIEF RVR FALL CLOUDY    17   9  70 N3        30.23S
CROOKSTON      FAIR      18  12  79 CALM      30.24F
FOSSTON        LGT SNOW  19   9  63 CALM      30.20F
DETROIT LAKES  LGT SNOW  21  21 100 E3        30.18F
MOORHEAD       LGT SNOW  21  19  93 CALM      30.21F VSB 3/4
PARK RAPIDS    LGT SNOW  20  16  84 CALM      30.18F VSB 1
MAHNOMEN       LGT SNOW  21  19  92 E5        30.19F WCI  15
$$
MNZ006-009>011-018-025>026-230700-
   North Central Minnesota

CITY           SKY/WX    TMP DP  RH WIND       PRES   REMARKS
BAUDETTE       CLOUDY    15   5  64 SE3       30.22F
FLAG ISLAND    FAIR       7   1  78 CALM      30.24S
INTL FALLS     CLOUDY    21   9  59 CALM      30.24F
6HR MIN TEMP:  20; 6HR MAX TEMP:  28;

WASKISH        MIX PCPN  21  18  86 SE5       30.23F WCI  15
BIG FORK       LGT SNOW  21  18  86 CALM      30.22F
LONGVILLE      LGT SNOW  19  18  93 CALM      30.21F
GRAND RAPIDS   LGT SNOW  20  17  88 SE3       30.24F FOG
CRANE LAKE     LGT SNOW  21  18  86 S3        30.28F
ORR            LGT SNOW  19  16  86 CALM      30.21F
COOK           LGT SNOW  19  18  93 CALM      30.24F VSB 3/4
WALKER         LGT SNOW  19  17  92 CALM      30.20F
$$
MNZ012-019>021-037-230700-
   Northeast Minnesota

CITY           SKY/WX    TMP DP  RH WIND       PRES   REMARKS
DULUTH         LGT SNOW  22  19  89 E9        30.21F VSB 3/4 WCI  12
6HR MIN TEMP:  20; 6HR MAX TEMP:  22; 6HR PCP:  0.08;

ELY            LGT SNOW  19  16  86 CALM      30.25F
HIBBING        SNOW      19  17  92 E3        30.23F VSB 1/2
EVELETH        LGT SNOW  19  18  93 E3        30.25F
DULUTH HARBOR  LGT SNOW  25  23  93 NE17      30.28F WCI  11
TWO HARBORS    LGT SNOW  25  19  80 NE5       30.25F WCI  19
GRAND MARAIS     N/A     23  12  62 N3        30.34F
G MARAIS ARPRT LGT SNOW  19   7  58 CALM      30.27S
$$
MNZ029>031-032-039>041-046>048-054>057-064-230700-
   West Central Minnesota

CITY           SKY/WX    TMP DP  RH WIND       PRES   REMARKS
FERGUS FALLS   LGT SNOW  19  18  93 E7        30.17F WCI  10
WHEATON        FLURRIES  21  18  86 NE3       30.19S
MORRIS         LGT SNOW  21  21 100 E10       30.13F VSB 1   WCI  10
ALEXANDRIA     LGT SNOW  20  18  92 E7        30.14F VSB 3/4 WCI  11
ELBOW LAKE     FLURRIES  20  18  92 E8        30.16F WCI  11
WADENA         LGT SNOW  19  18  93 NE7       30.16F VSB 3/4 WCI  10
GLENWOOD       LGT SNOW  21  19  93 E7        30.14F WCI  13
APPLETON       LGT SNOW  25  21  86 E8        30.14F WCI  16
BENSON         LGT SNOW  23  21  93 SE8       30.15F VSB 1   WCI  14
MADISON        LGT SNOW  25  23  93 SE5       30.14F WCI  19
WILLMAR        CLOUDY    25  21  86 E9        30.16F WCI  15
$$
MNZ033>034-036-042>043-049>051-058-059-230700-
   Central Minnesota

CITY           SKY/WX    TMP DP  RH WIND       PRES   REMARKS
ST CLOUD       LGT SNOW  23  22  96 E9        30.17F VSB 3/4 WCI  13
6HR MIN TEMP:  21; 6HR MAX TEMP:  23; 6HR PCP:  0.23;

SAUK CENTRE    LGT SNOW  21  20  95 E8        30.16F VSB 3/4 WCI  12
PAYNESVILLE    LGT SNOW  23  22  98 E7        30.16F WCI  15
AITKIN         LGT SNOW  19  18  93 CALM      30.21S
PINE RIVER     LGT SNOW  19  16  86 E5        30.23F WCI  13
BRAINERD       LGT SNOW  22  18  85 NE5       30.19F VSB 3/4 WCI  16
STAPLES        LGT SNOW  19  18  93 CALM      30.17F VSB 1
LONG PRAIRIE   LGT SNOW  21  19  93 NE5       30.16F VSB 1   WCI  15
LITTLE FALLS   LGT SNOW  23  19  86 E5        30.18F WCI  17
LITCHFIELD     LGT SNOW  25  25 100 E8        30.16F WCI  16
BUFFALO        LGT SNOW  25  23  93 NE8       30.18F VSB 3/4 WCI  16
MAPLE LAKE     LGT SNOW  25  24  96 E7        30.18F VSB 3/4 WCI  17
HUTCHINSON     LGT SNOW  25  24  95 E9        30.16F WCI  16
$$
MNZ037-044-045-052-053-230700-
   East Central Minnesota

CITY           SKY/WX    TMP DP  RH WIND       PRES   REMARKS
PRINCETON      SNOW      25  23  93 NE3       30.19F VSB 1/2
CAMBRIDGE      LGT SNOW  27  21  80 NE3       30.20F VSB 1
RUSH CITY      LGT SNOW  24  22  94 NE3       30.22F VSB 3/4
MOOSE LAKE     LGT SNOW  21  19  93 CALM      30.21F
HINCKLEY       LGT SNOW  27  25  93 NE3       30.23F VSB 1
CLOQUET        LGT SNOW  21  19  93 E5        30.22F WCI  15
MCGREGOR       CLOUDY    21  19  93 E3        30.22F
$$
MNZ071>073-080-081-089-090-097-098-230700-
   Southwest Minnesota

CITY           SKY/WX    TMP DP  RH WIND       PRES   REMARKS
MONTEVIDEO       N/A     23  23 100 SE10      30.14F WCI  12
GRANITE FALLS  LGT SNOW  26  24  93 E5        30.16F WCI  20
CANBY          LGT SNOW  24  23  96 CALM      30.14F
MARSHALL       LGT SNOW  23  22  96 SE6G20    30.12F FOG     WCI  16
REDWOOD FALLS  LGT SNOW  24  23  96 E5        30.13F FOG     WCI  18
OLIVIA         LGT SNOW  27  23  86 E8        30.13F WCI  18
PIPESTONE      CLOUDY    23  21  93 SW3       30.09F
WORTHINGTON    FLURRIES  25  24  96 SW7       30.09F WCI  17
JACKSON        LGT SNOW  28  27  93 SW3       30.10F
TRACY          LGT SNOW  25  25  98 CALM      30.11F
SLAYTON        LGT SNOW  24  24  97 SW5       30.11S WCI  18
$$
MNZ065>067-074>077-082>085-091>093-230700-
   South Central Minnesota

CITY           SKY/WX    TMP DP  RH WIND       PRES   REMARKS
MANKATO        SNOW      27  26  96 E8        30.14F VSB 1/2 WCI  19
NEW ULM        LGT SNOW  25  25 100 E6        30.13F WCI  18
ST JAMES       LGT SNOW  27  27 100 E5        30.13F WCI  21
FAIRMONT       LGT SNOW  30  30 100 S7        30.12S FOG     WCI  23
GLENCOE        LGT SNOW  26  26 100 E6        30.15F VSB 3/4 WCI  20
FARIBAULT      LGT SNOW  28  27  93 E6        30.16F WCI  22
OWATONNA       LGT SNOW  28  27  93 E6        30.15F WCI  22
WASECA         LGT SNOW  30  28  93 SE8       30.14F WCI  23
ALBERT LEA     LGT SNOW  30  28  93 CALM      30.15F
$$
MNZ078>079-086>088-094>096-230700-
   Southeast Minnesota

CITY           SKY/WX    TMP DP  RH WIND       PRES   REMARKS
ROCHESTER      FRZ RAIN  30  30 100 S6        30.16R FOG     WCI  24
6HR MIN TEMP:  25; 6HR MAX TEMP:  30; 6HR PCP:  0.15;

RED WING       LGT SNOW  28  27  93 E3        30.19F
STANTON        LGT SNOW  28  27  93 E6        30.16F WCI  22
DODGE CENTER   LGT SNOW  28  27  93 CALM      30.15F VSB 1
WINONA         CLOUDY    30  30 100 SE9       30.15F FOG     WCI  22
AUSTIN         MIX PCPN  30  30 100 S3        30.15F
PRESTON        CLOUDY    30  29  96 S8        30.13S FOG     WCI  22
$$
ABBREVIATIONS USED IN REMARKS
   TC - TEMPERATURES IN CELSIUS
  WCI - WIND CHILL INDEX
   HX - HEAT INDEX
  VSB - VISIBILITY
$$




USA.gov is the U.S. government's official web portal to all federal, state and local government web resources and services.